Wind_Speed
14 14 14 13 13 12 11 11 10 10 9 8 7 6 5 4 3 3 2 2 1 1 1 1 2 3 4 4 5 5 6 6 6 7 8 8 8 9 9 9 10 10 10
13 14 14 13 13 13 12 11 11 11 10 8 7 6 5 4 4 3 3 2 2 2 2 3 3 4 4 5 5 6 6 7 8 9 9 9 9 10 11 11 11 12 12
12 13 13 13 13 13 13 12 12 12 11 10 8 7 6 5 4 4 3 3 3 3 3 4 4 5 5 6 6 7 8 8 8 9 10 10 11 11 11 12 13 13 13
11 11 11 12 12 13 13 13 12 12 11 11 9 8 7 5 5 5 4 4 4 4 4 5 5 6 6 7 7 8 9 9 10 11 11 12 12 12 13 13 13 14 15
10 10 10 11 11 12 12 13 12 12 12 11 10 10 9 7 6 6 5 5 5 5 6 6 6 6 7 7 8 8 9 10 11 12 12 13 14 14 14 14 14 15 15
8 8 9 10 10 11 12 12 13 12 12 11 11 11 10 9 8 7 7 6 6 7 7 6 7 7 8 9 9 9 9 10 11 12 13 14 14 15 16 15 15 16 15
8 8 8 9 10 11 11 12 12 12 12 11 11 11 11 10 9 8 7 7 7 7 7 7 7 8 9 10 10 10 11 11 12 12 13 13 14 15 15 15 15 16 16
7 8 8 9 9 10 11 12 11 12 12 11 11 12 12 11 10 9 8 8 8 8 8 8 8 9 9 10 10 11 11 12 12 12 13 13 14 15 15 15 16 16 16
6 6 8 9 10 10 10 11 11 11 11 12 12 12 12 12 11 10 9 9 9 9 9 9 9 9 9 10 10 11 12 12 12 13 13 13 14 15 15 15 15 16 16
5 6 8 9 10 10 10 10 11 11 12 12 13 13 13 13 12 12 11 10 10 9 9 9 10 10 10 11 11 11 12 12 12 13 13 14 15 15 16 16 16 17 17
6 7 8 9 10 10 10 10 11 11 12 12 13 13 13 13 14 13 12 12 11 10 10 9 10 11 11 11 11 11 12 12 12 13 14 15 15 16 16 16 16 17 17
8 9 9 9 9 9 10 11 12 12 12 12 13 13 13 14 15 14 14 13 12 12 12 11 11 11 11 11 12 12 12 12 13 14 14 14 15 15 15 16 16 17 17
10 10 10 9 9 10 11 12 13 14 13 13 14 14 14 14 15 15 13 13 13 13 13 12 12 11 11 11 11 11 12 12 13 13 14 15 16 15 16 16 17 17 17
11 10 10 11 11 11 12 13 14 14 14 14 15 15 15 15 16 15 14 14 13 14 13 13 13 12 11 12 12 13 13 13 13 14 15 15 16 16 17 17 17 17 17
13 12 12 12 12 12 13 13 14 14 14 15 15 15 16 16 16 15 15 15 15 15 14 14 12 12 12 13 13 14 14 14 15 15 16 16 16 16 17 16 17 17 17
15 14 13 13 13 13 14 14 15 15 15 15 16 16 16 17 16 16 17 16 16 16 14 13 13 13 13 13 14 14 15 15 15 16 16 16 16 17 17 17 17 17 18
16 16 15 15 14 15 16 16 16 16 16 17 17 17 17 17 17 16 16 16 17 15 14 14 13 13 14 14 15 15 15 16 16 17 16 16 17 18 17 17 18 18 18
18 17 18 18 16 17 17 18 18 17 17 18 19 19 18 18 18 17 17 16 16 15 14 14 14 14 15 15 15 16 16 16 16 17 17 17 18 18 18 18 18 18 18
21 20 20 20 19 19 20 20 20 19 19 19 21 20 19 19 19 17 16 16 16 16 15 14 14 15 16 16 16 16 17 16 17 17 18 18 19 19 18 19 19 19 19
23 22 22 22 22 22 22 22 22 22 21 21 21 21 21 20 19 17 17 17 16 16 16 15 16 16 16 16 16 16 17 17 18 18 18 18 19 19 19 19 19 20 20
26 26 25 25 25 25 24 24 23 24 24 24 23 22 22 22 20 18 17 17 17 17 17 17 17 17 17 17 17 17 18 18 18 18 19 19 19 19 20 20 20 21 21
28 28 28 28 27 27 26 25 25 25 25 24 24 24 24 24 21 19 18 18 18 18 18 18 18 18 18 18 18 19 19 19 20 20 20 20 20 20 21 21 21 22 22
31 30 31 30 29 28 27 26 26 26 26 26 25 26 26 25 23 21 20 20 20 20 19 19 19 20 20 20 20 20 21 21 21 21 21 22 22 22 22 22 23 23 24
33 33 33 32 31 30 28 27 27 27 27 28 28 26 24 23 23 22 21 21 21 21 20 20 20 21 21 21 21 21 22 22 22 22 23 23 22 23 23 23 24 24 25
34 33 34 32 32 32 30 29 28 28 29 28 27 25 24 23 22 22 21 22 22 22 22 22 21 22 22 23 23 23 24 23 23 23 23 23 23 24 24 25 25 25 26
33 33 33 34 33 32 31 30 29 29 29 28 26 24 23 22 22 21 21 22 23 23 23 23 23 23 24 24 24 25 24 24 24 24 24 24 24 25 25 25 26 26 26
Wind_Direction
38 38 37 37 37 35 35 34 33 31 31 33 34 34 35 36 34 26 18 23 24 329 255 250 251 251 253 257 261 266 274 285 286 287 289 290 291 288 288 292 294 291 291
36 35 34 34 33 31 31 30 29 27 28 29 30 27 22 15 12 4 353 354 333 312 291 270 265 268 270 268 266 266 278 283 284 286 288 293 294 295 292 289 290 288 287
30 32 32 33 33 32 31 30 27 25 24 24 23 20 15 5 355 348 335 313 308 301 291 285 277 277 280 277 276 276 282 287 286 286 287 291 296 297 295 294 290 288 285
23 26 30 30 31 32 32 29 27 24 21 19 20 14 6 358 348 341 332 317 303 295 292 288 284 282 281 281 282 283 282 283 284 285 287 290 293 294 295 293 289 287 286
16 20 24 26 27 28 28 26 24 22 19 15 13 9 2 353 343 335 327 319 310 304 300 291 286 283 283 283 285 288 287 284 284 285 286 288 291 292 293 291 288 288 288
9 15 19 22 22 23 23 20 18 17 15 13 12 9 3 357 348 336 324 316 311 304 299 294 288 289 292 289 288 290 291 290 287 286 286 287 289 288 289 290 288 286 285
9 14 15 14 15 16 16 12 11 13 12 9 6 4 2 357 353 344 332 323 315 308 305 298 292 290 292 291 289 291 292 292 289 288 288 287 288 290 290 289 288 288 287
6 15 12 8 8 9 8 6 7 8 10 8 5 2 2 359 354 348 337 326 317 312 309 305 300 297 295 291 290 291 291 292 291 291 291 289 290 292 292 290 289 290 289
341 358 8 6 2 360 359 1 0 1 3 3 2 2 1 359 353 346 339 332 322 311 306 304 300 298 297 293 292 291 293 293 293 293 293 291 292 295 296 294 292 292 290
327 338 351 356 354 352 352 357 360 358 356 355 356 357 357 355 351 345 340 333 326 314 306 300 298 298 296 296 294 292 294 294 294 296 295 294 295 296 295 294 293 292 290
310 320 331 339 343 346 346 350 351 353 353 349 348 349 350 350 346 343 341 336 328 319 311 307 305 302 300 298 297 295 296 297 297 298 299 297 296 296 296 295 293 292 291
297 305 317 326 334 340 339 338 340 340 340 339 338 340 342 342 342 338 336 334 330 326 320 313 307 304 303 304 302 298 298 298 300 301 302 301 300 300 300 298 295 294 294
285 295 306 312 319 327 329 328 331 334 332 332 332 332 333 335 337 335 330 329 327 323 321 319 316 312 310 310 308 306 304 304 303 305 305 304 301 302 303 302 299 297 298
274 286 297 303 307 314 320 320 325 328 327 326 326 328 327 328 329 329 328 328 324 324 320 319 313 310 309 309 308 306 304 304 304 306 308 308 306 304 305 304 303 301 300
268 280 291 297 300 305 310 313 317 320 321 320 320 321 324 324 325 325 326 324 321 320 317 317 313 308 308 308 308 309 307 306 305 306 305 304 305 305 305 305 305 303 302
269 275 282 287 291 296 302 307 311 312 313 314 314 314 316 318 319 320 321 321 321 317 314 313 310 307 307 308 307 308 308 308 308 309 309 308 308 307 308 308 306 303 303
269 270 275 279 283 290 295 299 303 304 305 307 308 308 309 312 314 315 316 318 320 315 310 313 310 307 306 309 309 307 307 308 308 309 309 308 308 308 308 308 306 303 303
263 269 275 279 281 286 290 291 292 294 297 300 302 303 303 305 307 309 310 314 317 313 311 312 312 311 313 311 311 307 307 308 309 308 308 307 307 307 307 308 308 306 305
259 264 269 273 276 281 285 285 289 291 295 297 301 299 299 302 303 303 308 312 313 312 310 309 310 311 312 313 310 307 306 309 310 309 308 306 306 305 305 306 306 305 305
257 261 265 271 274 280 284 285 287 290 292 294 297 299 299 298 300 301 302 306 307 306 307 307 308 310 310 311 310 310 310 310 309 309 309 307 306 306 306 306 306 305 305
257 261 266 270 274 278 282 285 288 290 291 291 290 293 295 296 295 298 298 299 300 301 303 305 306 307 307 308 309 309 308 308 307 307 308 307 306 306 305 305 305 305 305
258 262 266 268 270 273 277 280 284 286 287 289 289 289 292 296 295 294 296 296 296 298 300 302 303 304 305 305 306 308 307 306 306 306 306 306 305 304 303 303 304 303 304
255 260 263 264 265 268 272 275 279 285 286 288 290 289 288 292 291 290 291 294 294 295 296 299 300 301 303 304 305 306 307 306 304 305 305 303 302 302 302 303 303 303 303
254 256 260 263 265 267 270 273 276 281 285 287 287 287 288 289 290 287 289 291 291 293 296 298 298 300 302 304 304 304 308 306 303 303 303 302 302 302 303 303 303 303 303
253 256 259 260 262 264 266 271 275 279 283 286 284 284 284 287 287 285 286 290 290 292 294 297 298 301 302 303 304 304 305 306 305 305 304 302 301 302 302 302 302 302 302
255 258 261 262 265 264 264 268 272 275 280 283 281 279 280 285 285 285 288 290 288 290 295 296 297 299 301 302 302 302 303 303 304 305 305 304 303 303 303 302 303 303 303
Height
5915 5913 5912 5910 5909 5907 5906 5904 5903 5902 5900 5899 5898 5897 5896 5896 5895 5895 5894 5894 5894 5894 5894 5894 5894 5894 5895 5895 5895 5895 5895 5895 5894 5894 5894 5893 5893 5892 5892 5891 5891 5890 5889
5917 5915 5914 5912 5910 5909 5907 5905 5904 5902 5901 5900 5899 5898 5897 5896 5896 5895 5895 5894 5894 5894 5894 5894 5894 5894 5894 5894 5894 5893 5893 5893 5893 5893 5892 5892 5892 5890 5890 5889 5888 5888 5887
5918 5916 5915 5913 5911 5910 5908 5906 5905 5903 5902 5900 5899 5898 5897 5897 5896 5895 5895 5894 5894 5894 5893 5893 5893 5893 5893 5893 5892 5892 5892 5891 5891 5890 5890 5890 5889 5888 5888 5887 5886 5885 5884
5919 5917 5916 5914 5912 5910 5909 5907 5906 5904 5903 5901 5900 5898 5897 5896 5896 5895 5894 5894 5893 5893 5893 5892 5892 5892 5892 5891 5891 5891 5890 5889 5889 5888 5888 5888 5887 5886 5885 5884 5883 5882 5881
5920 5918 5916 5915 5913 5912 5910 5908 5906 5905 5903 5902 5900 5899 5898 5896 5895 5894 5894 5893 5893 5892 5892 5891 5891 5891 5890 5890 5889 5889 5888 5887 5887 5886 5885 5885 5884 5883 5883 5881 5880 5879 5878
5920 5918 5917 5915 5914 5912 5911 5909 5907 5905 5904 5902 5901 5899 5898 5896 5895 5894 5893 5892 5892 5891 5891 5890 5890 5889 5889 5888 5887 5887 5886 5885 5884 5884 5883 5882 5881 5880 5879 5878 5877 5876 5875
5920 5917 5916 5916 5915 5913 5911 5909 5907 5906 5904 5903 5901 5900 5898 5896 5894 5893 5892 5891 5891 5890 5889 5889 5888 5888 5887 5886 5885 5884 5884 5883 5882 5881 5880 5879 5878 5877 5875 5874 5873 5872 5871
5920 5918 5917 5916 5915 5913 5912 5910 5908 5906 5905 5903 5902 5900 5898 5896 5894 5893 5892 5890 5890 5889 5888 5887 5886 5885 5885 5884 5883 5882 5881 5880 5879 5878 5877 5876 5875 5873 5872 5871 5870 5869 5868
5920 5919 5918 5916 5915 5913 5912 5910 5908 5907 5905 5904 5902 5900 5898 5896 5894 5892 5891 5889 5888 5887 5886 5885 5884 5883 5882 5882 5881 5880 5879 5877 5876 5875 5874 5873 5872 5870 5869 5868 5866 5866 5864
5919 5918 5917 5916 5914 5913 5912 5910 5909 5907 5905 5904 5902 5900 5898 5896 5894 5892 5890 5889 5887 5886 5884 5883 5882 5881 5880 5879 5878 5877 5876 5875 5873 5872 5871 5870 5868 5867 5865 5864 5862 5861 5860
5918 5917 5916 5915 5914 5913 5911 5910 5909 5907 5905 5904 5902 5900 5898 5896 5893 5891 5889 5887 5886 5884 5882 5881 5880 5879 5878 5877 5875 5874 5873 5872 5871 5870 5868 5866 5865 5863 5862 5860 5858 5857 5856
5916 5916 5915 5914 5913 5911 5910 5909 5908 5906 5905 5903 5901 5899 5897 5895 5892 5890 5888 5886 5884 5882 5881 5879 5878 5876 5875 5874 5873 5871 5870 5869 5868 5866 5865 5863 5862 5860 5858 5857 5855 5853 5852
5914 5914 5913 5912 5911 5910 5909 5908 5906 5905 5903 5901 5899 5898 5895 5893 5891 5889 5887 5885 5883 5881 5879 5877 5876 5874 5873 5871 5870 5869 5868 5866 5865 5863 5862 5860 5858 5856 5855 5853 5851 5850 5848
5911 5911 5911 5910 5909 5908 5907 5906 5905 5903 5901 5899 5898 5896 5894 5892 5889 5887 5885 5883 5881 5879 5877 5875 5874 5872 5871 5869 5868 5866 5865 5863 5862 5860 5858 5856 5855 5853 5851 5849 5848 5846 5844
5908 5908 5907 5907 5906 5906 5905 5903 5902 5901 5899 5897 5895 5894 5892 5890 5887 5885 5883 5881 5879 5876 5875 5873 5871 5870 5868 5867 5865 5864 5862 5860 5859 5857 5855 5853 5851 5849 5847 5846 5844 5842 5840
5904 5904 5904 5904 5903 5902 5901 5900 5899 5898 5896 5895 5893 5891 5890 5887 5885 5883 5881 5878 5876 5873 5872 5871 5869 5867 5866 5864 5862 5861 5859 5857 5855 5854 5852 5850 5848 5846 5844 5842 5840 5838 5836
5900 5900 5900 5900 5899 5899 5898 5897 5896 5894 5893 5892 5890 5888 5886 5884 5882 5880 5878 5875 5873 5870 5869 5868 5866 5864 5862 5861 5859 5857 5856 5854 5852 5850 5848 5846 5844 5842 5840 5838 5836 5834 5832
5895 5895 5895 5895 5895 5894 5894 5892 5891 5890 5889 5887 5886 5884 5882 5881 5879 5877 5874 5872 5870 5868 5866 5865 5863 5861 5859 5857 5855 5854 5852 5850 5848 5846 5844 5842 5840 5838 5836 5834 5832 5830 5827
5889 5890 5890 5890 5890 5889 5888 5887 5885 5884 5884 5883 5881 5879 5877 5876 5874 5873 5871 5868 5866 5865 5863 5861 5860 5858 5856 5854 5852 5850 5848 5846 5844 5842 5840 5838 5836 5834 5832 5830 5828 5825 5823
5883 5883 5884 5884 5884 5884 5883 5882 5880 5879 5879 5878 5876 5875 5873 5871 5870 5868 5866 5865 5863 5861 5860 5858 5856 5854 5852 5850 5848 5846 5844 5842 5840 5838 5836 5834 5832 5830 5827 5825 5823 5821 5818
5876 5877 5877 5878 5878 5878 5877 5876 5875 5874 5873 5872 5871 5869 5868 5866 5865 5863 5862 5861 5859 5858 5856 5854 5852 5850 5848 5846 5844 5842 5840 5838 5836 5834 5832 5830 5827 5825 5823 5821 5818 5816 5813
5868 5870 5870 5871 5871 5871 5871 5871 5870 5869 5867 5865 5864 5863 5862 5860 5858 5858 5857 5856 5855 5853 5851 5850 5848 5846 5844 5842 5840 5837 5835 5833 5831 5829 5827 5824 5822 5820 5818 5815 5813 5810 5808
5860 5862 5863 5863 5864 5864 5864 5864 5863 5862 5861 5860 5858 5857 5856 5855 5853 5853 5852 5851 5850 5848 5846 5845 5843 5841 5839 5837 5835 5833 5830 5828 5826 5823 5821 5819 5817 5814 5812 5810 5807 5804 5802
5852 5853 5854 5855 5856 5856 5856 5856 5856 5855 5854 5853 5852 5850 5848 5848 5847 5846 5846 5845 5844 5843 5841 5840 5838 5836 5834 5832 5830 5827 5825 5822 5820 5818 5815 5813 5811 5808 5806 5803 5801 5798 5795
5843 5844 5845 5847 5848 5848 5848 5848 5848 5848 5847 5846 5845 5843 5842 5842 5840 5840 5840 5839 5838 5837 5836 5834 5832 5830 5828 5826 5824 5822 5819 5817 5814 5812 5809 5807 5805 5802 5800 5797 5794 5792 5789
5833 5835 5836 5838 5838 5838 5839 5840 5840 5840 5840 5839 5838 5836 5836 5836 5835 5834 5834 5832 5832 5831 5829 5828 5826 5824 5822 5820 5818 5815 5813 5811 5808 5806 5803 5801 5798 5796 5793 5790 5788 5785 5782